This is the latest recevied weather packets stored in our database for station/object K0PFX-8. If no packets are shown the sender has not sent any weather packets the latest 10 day(s).
| Time | Temp. | Humidity | Pressure | Rain* | Wind** | Luminosity | Snow |
|---|---|---|---|---|---|---|---|
| 1778193224 | 19.44° C | 31% | 1013.9 hPa | 0 mm | 3.58 m/s, 260° | - | - |
| 1778192326 | 19.44° C | 31% | 1013.9 hPa | 0 mm | 3.13 m/s, 231° | - | - |
| 1778191424 | 19.44° C | 31% | 1013.9 hPa | 0 mm | 4.47 m/s, 231° | - | - |
| 1778190526 | 20.56° C | 29% | 1013.9 hPa | 0 mm | 5.36 m/s, 236° | - | - |
| 1778189625 | 20° C | 31% | 1014 hPa | 0 mm | 4.92 m/s, 233° | - | - |
| 1778188726 | 19.44° C | 30% | 1014.1 hPa | 0 mm | 6.71 m/s, 239° | - | - |
| 1778187825 | 19.44° C | 32% | 1014.4 hPa | 0 mm | 3.58 m/s, 242° | - | - |
| 1778186927 | 19.44° C | 31% | 1014.6 hPa | 0 mm | 4.47 m/s, 236° | - | - |
| 1778186025 | 18.89° C | 30% | 1014.9 hPa | 0 mm | 4.47 m/s, 250° | - | - |
| 1778185127 | 17.78° C | 32% | 1015.3 hPa | 0 mm | 4.02 m/s, 224° | - | - |
| 1778184227 | 17.78° C | 29% | 1015.3 hPa | 0 mm | 7.6 m/s, 222° | - | - |
| 1778183328 | 18.89° C | 32% | 1015.4 hPa | 0 mm | 4.02 m/s, 218° | - | - |
| 1778182425 | 18.33° C | 33% | 1015.6 hPa | 0 mm | 3.13 m/s, 276° | - | - |
| 1778181528 | 18.33° C | 31% | 1015.7 hPa | 0 mm | 4.92 m/s, 228° | - | - |
| 1778180626 | 17.22° C | 33% | 1015.8 hPa | 0 mm | 7.15 m/s, 228° | - | - |
| 1778179729 | 17.22° C | 35% | 1016.1 hPa | 0 mm | 2.24 m/s, 229° | - | - |
| 1778178827 | 17.22° C | 33% | 1016.1 hPa | 0 mm | 3.58 m/s, 252° | - | - |
| 1778177928 | 17.22° C | 33% | 1016.2 hPa | 0 mm | 4.92 m/s, 262° | - | - |
| 1778177028 | 17.22° C | 36% | 1016.4 hPa | 0 mm | 3.58 m/s, 224° | - | - |
| 1778176129 | 16.67° C | 36% | 1016.9 hPa | 0 mm | 4.92 m/s, 193° | - | - |
| 1778175228 | 16.11° C | 33% | 1017.1 hPa | 0 mm | 5.81 m/s, 231° | - | - |
| 1778174330 | 16.67° C | 37% | 1017.2 hPa | 0 mm | 4.02 m/s, 280° | - | - |
| 1778173429 | 16.11° C | 32% | 1017.6 hPa | 0 mm | 4.02 m/s, 250° | - | - |
| 1778172531 | 15.56° C | 35% | 1017.9 hPa | 0 mm | 4.02 m/s, 243° | - | - |
| 1778171630 | 15.56° C | 27% | 1018 hPa | 0 mm | 4.02 m/s, 233° | - | - |
* Rain latest hour (hover to see other rain measurements)
** Current wind speed in m/s (hover to see current wind gust speed)